Weather History for PANN - December, 2012

Change the Weather History Date:

Wednesday, December 5, 2012

  Actual Average Record
Temperature  
Mean Temperature 10 °F -  
Max Temperature 41 °F 0 °F 50 °F (1959)
Min Temperature -22 °F -18 °F -22 °F (2012)
Degree Days  
Heating Degree Days 56    
Moisture  
Dew Point -17 °F    
Average Humidity 70    
Maximum Humidity 94    
Minimum Humidity 61    
Precipitation  
Precipitation 0.08 in - - ()
Sea Level Pressure  
Sea Level Pressure 29.89 in    
Wind  
Wind Speed 4 mph (ENE)    
Max Wind Speed 9 mph    
Max Gust Speed 17 mph    
Visibility 8 miles    
Events Rain , Snow    
Averages and records for this station are not official NWS values.
T = Trace of Precipitation, MM = Missing Value Source: NWS Daily Summary

Daily Weather History Graph

Daily Weather History Graph

Search for Another Location

Airport or City:

Trip Planner

Search our weather history database for the weather conditions in past years. The results will help you decide how hot, cold, wet, or windy it might be!

Date:

Astronomy

Dec. 05, 2012 Rise Set
Actual Time 10:32 AM AKST 3:01 PM AKST
Civil Twilight 9:16 AM AKST 4:17 PM AKST
Nautical Twilight 8:08 AM AKST 5:26 PM AKST
Astronomical Twilight 7:08 AM AKST 6:26 PM AKST
Moon No Moon Rise 12:56 PM AKST (12/5)
Length of Visible Light 7h 01m
Length of Day
4h 28m
Waning Gibbous, 58% of the Moon is Illuminated
Dec 5
Waning Gibbous
Dec 6
Last Quarter
Dec 12
New
Dec 19
First Quarter
Dec 28
Full

Hourly Weather History & Observations

Time (AKST) Temp. Windchill Dew Point Humidity Pressure Visibility Wind Dir Wind Speed Gust Speed Precip Events Conditions
12:53 AM -31.0 °F - - N/A% 29.90 in 10.0 mi Calm Calm - N/A   Overcast
1:53 AM -29.0 °F - -36.0 °F 69% 29.90 in 10.0 mi Calm Calm - N/A   Overcast
2:53 AM -27.0 °F - -34.1 °F 69% 29.90 in 9.0 mi Calm Calm - N/A   Overcast
3:53 AM -25.1 °F -36.5 °F -31.0 °F 74% 29.90 in 10.0 mi East 3.5 mph - N/A   Overcast
5:53 AM -25.1 °F -39.1 °F -32.1 °F 70% 29.89 in 10.0 mi ESE 4.6 mph - N/A   Scattered Clouds
6:53 AM -23.1 °F -34.2 °F -29.0 °F 74% 29.88 in 4.0 mi East 3.5 mph - 0.00 in Snow Light Snow
7:53 AM -20.9 °F -31.7 °F -27.9 °F 70% 29.89 in 4.0 mi East 3.5 mph - 0.00 in Snow Light Snow
8:25 AM -22.0 °F - -29.2 °F 69% 29.83 in 8.0 mi Calm Calm - 0.00 in   Overcast
8:53 AM -22.0 °F -35.6 °F -29.0 °F 70% 29.90 in 5.0 mi East 4.6 mph - 0.00 in Snow Light Snow
9:05 AM -22.0 °F -37.7 °F -29.2 °F 69% 29.83 in 7.0 mi East 5.8 mph - 0.00 in   Overcast
9:28 AM -22.0 °F -35.6 °F -29.2 °F 69% 29.83 in 10.0 mi ESE 4.6 mph - 0.00 in   Scattered Clouds
9:53 AM -22.0 °F -37.7 °F -29.0 °F 70% 29.91 in 10.0 mi SE 5.8 mph - 0.00 in   Scattered Clouds
10:53 AM -20.9 °F -36.4 °F -29.0 °F 66% 29.91 in 10.0 mi East 5.8 mph - N/A   Clear
11:53 AM -18.9 °F -37.2 °F -26.0 °F 70% 29.91 in 10.0 mi ESE 8.1 mph - N/A   Clear
12:53 PM -17.0 °F -36.1 °F -25.1 °F 67% 29.91 in 10.0 mi East 9.2 mph - N/A   Clear
1:53 PM -17.0 °F -33.4 °F -24.0 °F 70% 29.92 in 10.0 mi East 6.9 mph - N/A   Clear
2:53 PM -16.1 °F -33.7 °F -23.1 °F 71% 29.92 in 10.0 mi ENE 8.1 mph - N/A   Clear
3:53 PM -13.0 °F -28.6 °F -20.9 °F 68% 29.92 in 10.0 mi ENE 6.9 mph - N/A   Clear
4:53 PM -14.1 °F -31.3 °F -20.9 °F 71% 29.92 in 10.0 mi ENE 8.1 mph - N/A   Clear
5:53 PM -8.0 °F -22.5 °F -17.0 °F 65% 29.92 in 10.0 mi ENE 6.9 mph - N/A   Clear
6:40 PM -7.6 °F -24.6 °F -16.6 °F 65% 29.86 in 9.0 mi NE 9.2 mph 17.3 mph N/A   Mostly Cloudy
6:53 PM -7.1 °F -21.4 °F -16.1 °F 65% 29.93 in 10.0 mi NE 6.9 mph - N/A   Overcast
7:17 PM -7.6 °F -24.6 °F -14.8 °F 71% 29.87 in 9.0 mi NE 9.2 mph - N/A   Mostly Cloudy
7:44 PM -5.8 °F -18.4 °F -14.8 °F 65% 29.87 in 10.0 mi ENE 5.8 mph - N/A   Overcast
7:53 PM -6.0 °F -21.5 °F -14.1 °F 68% 29.93 in 10.0 mi ENE 8.1 mph - N/A   Overcast
8:53 PM -6.0 °F -21.5 °F -13.0 °F 72% 29.94 in 4.0 mi ENE 8.1 mph - 0.00 in Snow Light Snow
9:11 PM -5.8 °F -16.7 °F -13.0 °F 71% 29.88 in 2.5 mi ENE 4.6 mph - 0.00 in Snow Light Snow
9:32 PM -5.8 °F -18.4 °F -13.0 °F 71% 29.88 in 3.0 mi ENE 5.8 mph - 0.00 in Snow Light Snow
9:51 PM -5.8 °F -18.4 °F -13.0 °F 71% 29.88 in 5.0 mi NE 5.8 mph - 0.00 in   Overcast
9:53 PM -6.0 °F -18.6 °F -13.0 °F 72% 29.94 in 5.0 mi NE 5.8 mph - 0.00 in   Overcast
10:34 PM -5.8 °F -18.4 °F -14.8 °F 65% 29.89 in 10.0 mi NE 5.8 mph - 0.00 in   Mostly Cloudy
10:53 PM -6.0 °F -18.6 °F -14.1 °F 68% 29.95 in 10.0 mi NE 5.8 mph - 0.00 in   Mostly Cloudy
11:53 PM -6.0 °F -18.6 °F -15.0 °F 65% 29.95 in 10.0 mi ENE 5.8 mph - N/A   Overcast